カタログに戻る

OV1-4 R/B

運用中LEO
NORAD 2124·ROCKET BODY·🇺🇸 United States

打ち上げ Mar 30, 1966 から Vandenberg Space Force Base

Loading…

次のパス (今後24時間)

TLE

最新Source: Space-Track

元期: Sep 14, 2026, 14:09 UTC

1 02124U 66025D   26257.58988573  .00000332  00000-0  49509-4 0  9992
2 02124 144.5093 147.6238 0080273  27.5756 332.9163 13.87854219 64027

AllMySatでOV1-4 R/Bをリアルタイム追跡

Download on the App Store